USA 176 (DSP 22)

Last updated on Mon Oct 14 2024 00:02:37 GMT+0000 (Coordinated Universal Time)

1 28158U 04004A 24287.51554437 -.00000213 00000+0 00000+0 0 9994 2 28158 11.2226 30.2632 0000905 239.7983 25.3938 1.00267941 26795
UTC large
Height (km)
Speed (km/s)
/
Latitude / Longitude
Inclination (degrees)
Orbital Period (minutes)
Azimuth
Elevation
Range (km)
Doppler Factor

Next 0 passes for location: London (51.5072 / 0.1276)

Sorry there are no passes over London.